RYR9166 ESSA-LFOB

Flight info

Callsign RYR9166
Flight time 2h 14m
Altitude 38000
Route ARS N623 BEDLA N866 LAPSI DCT INVOL DCT MIKRO DCT REXMI DCT MAXUN DCT PAM N872 CIV UM617 ROBAL M617 CMB
Aircraft B738/M-SDE3FGILRWY/SB1

Departure

Time 2026-04-25 16:40
Airport Stockholm-Arlanda Airport (ESSA)

Arrival

Time 2026-04-25 18:55
Airport Beauvais-Tillé airport (LFOB)
Time Latitude Longitude Altitude Speed Heading
2026-04-25 16:15 59.64736 17.92599 111 ft 0 kts 34°
2026-04-25 16:21 59.64735 17.92599 111 ft 0 kts 34°
2026-04-25 16:31 59.64735 17.92598 111 ft 1 kts 34°
2026-04-25 16:32 59.64718 17.92576 111 ft 3 kts 33°
2026-04-25 16:32 59.64700 17.92551 111 ft 3 kts 29°
2026-04-25 16:32 59.64680 17.92531 109 ft 3 kts 22°
2026-04-25 16:32 59.64661 17.92517 111 ft 2 kts 20°
2026-04-25 16:33 59.64660 17.92516 111 ft 0 kts 20°
2026-04-25 16:36 59.64694 17.92479 110 ft 8 kts 293°
2026-04-25 16:36 59.64715 17.92340 111 ft 13 kts 285°
2026-04-25 16:37 59.64741 17.92162 108 ft 12 kts 285°
2026-04-25 16:37 59.64697 17.92037 106 ft 13 kts 194°
2026-04-25 16:37 59.64611 17.92004 108 ft 13 kts 190°
2026-04-25 16:37 59.64519 17.91971 109 ft 15 kts 190°
2026-04-25 16:38 59.64400 17.91928 111 ft 20 kts 191°
2026-04-25 16:38 59.64246 17.91872 113 ft 24 kts 190°
2026-04-25 16:38 59.64087 17.91815 113 ft 23 kts 191°
2026-04-25 16:38 59.63934 17.91759 110 ft 22 kts 190°
2026-04-25 16:39 59.63823 17.91675 106 ft 17 kts 217°
2026-04-25 16:39 59.63737 17.91520 106 ft 17 kts 236°
2026-04-25 16:39 59.63765 17.91351 109 ft 12 kts 341°
2026-04-25 16:39 59.63852 17.91367 108 ft 15 kts
2026-04-25 16:40 59.64157 17.91480 106 ft 81 kts 11°
2026-04-25 16:40 59.64927 17.91743 109 ft 141 kts
2026-04-25 16:40 59.65930 17.92193 636 ft 149 kts
2026-04-25 16:40 59.66943 17.92473 1504 ft 146 kts
2026-04-25 16:41 59.68053 17.92600 1890 ft 177 kts 349°
2026-04-25 16:41 59.68803 17.91913 2284 ft 186 kts 322°
2026-04-25 16:41 59.69184 17.85712 3833 ft 211 kts 273°
2026-04-25 16:42 59.69066 17.82794 4534 ft 214 kts 272°
2026-04-25 16:42 59.68904 17.79858 5230 ft 214 kts 274°
2026-04-25 16:42 59.68799 17.76888 5895 ft 226 kts 267°
2026-04-25 16:42 59.68254 17.73765 6126 ft 256 kts 255°
2026-04-25 16:43 59.67641 17.70323 6635 ft 271 kts 258°
2026-04-25 16:43 59.67022 17.66766 7449 ft 275 kts 256°
2026-04-25 16:43 59.65977 17.63524 8358 ft 288 kts 231°
2026-04-25 16:43 59.64518 17.60799 9282 ft 289 kts 229°
2026-04-25 16:44 59.63043 17.58019 10037 ft 294 kts 230°
2026-04-25 16:44 59.61743 17.54836 10426 ft 303 kts 250°
2026-04-25 16:44 59.61247 17.50808 10817 ft 306 kts 271°
2026-04-25 16:44 59.61106 17.46580 11562 ft 310 kts 272°
2026-04-25 16:45 59.61005 17.42334 12406 ft 311 kts 272°
2026-04-25 16:45 59.60905 17.38106 13232 ft 314 kts 271°
2026-04-25 16:45 59.60793 17.33790 14091 ft 316 kts 271°
2026-04-25 16:45 59.60648 17.29442 14904 ft 320 kts 269°
2026-04-25 16:46 59.60543 17.25024 15711 ft 324 kts 272°
2026-04-25 16:46 59.60432 17.20554 16500 ft 328 kts 271°
2026-04-25 16:46 59.60296 17.16030 17265 ft 332 kts 271°
2026-04-25 16:46 59.60249 17.14481 17535 ft 334 kts 271°
2026-04-25 16:47 59.60001 17.06807 18745 ft 340 kts 270°
2026-04-25 16:47 59.59847 17.02108 19405 ft 344 kts 270°
2026-04-25 16:47 59.59694 16.97375 20044 ft 348 kts 270°
2026-04-25 16:47 59.59536 16.92581 20655 ft 353 kts 270°
2026-04-25 16:48 59.59377 16.87782 21268 ft 357 kts 270°
2026-04-25 16:48 59.59212 16.82852 21861 ft 362 kts 270°
2026-04-25 16:48 59.59045 16.77875 22477 ft 366 kts 270°
2026-04-25 16:48 59.58873 16.72834 23079 ft 370 kts 270°
2026-04-25 16:49 59.58697 16.67738 23592 ft 374 kts 269°
2026-04-25 16:49 59.58729 16.62622 24033 ft 373 kts 282°
2026-04-25 16:49 59.59241 16.57598 24539 ft 374 kts 285°
2026-04-25 16:49 59.59808 16.52558 25021 ft 377 kts 285°
2026-04-25 16:50 59.60369 16.47473 25437 ft 381 kts 285°
2026-04-25 16:50 59.60914 16.42322 25850 ft 386 kts 284°
2026-04-25 16:50 59.61445 16.37106 26308 ft 389 kts 284°
2026-04-25 16:50 59.61972 16.31849 26734 ft 392 kts 284°
2026-04-25 16:51 59.62289 16.26542 27115 ft 401 kts 271°
2026-04-25 16:51 59.61818 16.20986 27553 ft 411 kts 257°
2026-04-25 16:51 59.60668 16.15825 27948 ft 423 kts 242°
2026-04-25 16:51 59.59536 16.12572 28243 ft 427 kts 239°
2026-04-25 16:52 59.57199 16.06288 28738 ft 432 kts 238°
2026-04-25 16:52 59.55419 16.01485 29087 ft 435 kts 239°
2026-04-25 16:52 59.53653 15.96605 29435 ft 439 kts 239°
2026-04-25 16:52 59.51887 15.91687 29766 ft 441 kts 239°
2026-04-25 16:53 59.48323 15.81772 30326 ft 445 kts 239°
2026-04-25 16:53 59.46529 15.76797 30633 ft 447 kts 239°
2026-04-25 16:53 59.44721 15.71796 30874 ft 450 kts 240°
2026-04-25 16:54 59.42900 15.66764 31086 ft 454 kts 240°
2026-04-25 16:54 59.41083 15.61760 31305 ft 457 kts 240°
2026-04-25 16:54 59.39239 15.56693 31685 ft 456 kts 240°
2026-04-25 16:54 59.37397 15.51645 32082 ft 454 kts 240°
2026-04-25 16:55 59.35556 15.46620 32437 ft 454 kts 240°
2026-04-25 16:55 59.33709 15.41583 32741 ft 455 kts 240°
2026-04-25 16:55 59.31863 15.36542 33040 ft 456 kts 240°
2026-04-25 16:55 59.30016 15.31512 33400 ft 456 kts 240°
2026-04-25 16:56 59.28164 15.26485 33767 ft 455 kts 240°
2026-04-25 16:56 59.26312 15.21473 34039 ft 454 kts 240°
2026-04-25 16:56 59.24465 15.16480 34326 ft 453 kts 240°
2026-04-25 16:56 59.22617 15.11491 34585 ft 454 kts 240°
2026-04-25 16:57 59.20762 15.06499 34850 ft 454 kts 240°
2026-04-25 16:57 59.17052 14.96548 35402 ft 453 kts 239°
2026-04-25 16:57 59.15224 14.91658 35664 ft 454 kts 239°
2026-04-25 16:58 59.13369 14.86704 35951 ft 452 kts 239°
2026-04-25 16:58 59.11515 14.81757 36099 ft 454 kts 240°
2026-04-25 16:58 59.09643 14.76773 36221 ft 456 kts 240°
2026-04-25 16:58 59.07769 14.71801 36468 ft 456 kts 240°
2026-04-25 16:59 59.05894 14.66845 36786 ft 454 kts 239°
2026-04-25 16:59 59.04031 14.61923 37064 ft 452 kts 239°
2026-04-25 16:59 59.02168 14.57006 37331 ft 451 kts 239°
2026-04-25 16:59 59.00309 14.52109 37546 ft 452 kts 239°
2026-04-25 17:00 58.98441 14.47197 37731 ft 452 kts 239°
2026-04-25 17:00 58.94706 14.37404 37765 ft 452 kts 239°
2026-04-25 17:01 58.90988 14.27708 37785 ft 451 kts 239°
2026-04-25 17:01 58.87230 14.17980 37774 ft 452 kts 239°
2026-04-25 17:02 58.83462 14.08266 37776 ft 452 kts 239°
2026-04-25 17:02 58.79693 13.98579 37755 ft 451 kts 239°
2026-04-25 17:03 58.75928 13.88939 37776 ft 451 kts 239°
2026-04-25 17:03 58.72150 13.79307 37799 ft 451 kts 239°
2026-04-25 17:04 58.68391 13.69758 37797 ft 451 kts 239°
2026-04-25 17:04 58.64595 13.60155 37810 ft 452 kts 239°
2026-04-25 17:05 58.60779 13.50539 37781 ft 453 kts 239°
2026-04-25 17:05 58.55045 13.36167 37803 ft 452 kts 239°
2026-04-25 17:06 58.51214 13.26610 37814 ft 452 kts 239°
2026-04-25 17:06 58.47404 13.17149 37782 ft 452 kts 239°
2026-04-25 17:07 58.43566 13.07650 37820 ft 452 kts 239°
2026-04-25 17:07 58.39717 12.98173 37826 ft 453 kts 239°
2026-04-25 17:08 58.35852 12.88697 37831 ft 453 kts 239°
2026-04-25 17:08 58.31982 12.79233 37833 ft 453 kts 239°
2026-04-25 17:09 58.28115 12.69811 37851 ft 452 kts 239°
2026-04-25 17:09 58.24263 12.60471 37854 ft 452 kts 239°
2026-04-25 17:10 58.20390 12.51113 37852 ft 451 kts 239°
2026-04-25 17:10 58.16510 12.41783 37853 ft 450 kts 239°
2026-04-25 17:11 58.12625 12.32486 37846 ft 449 kts 239°
2026-04-25 17:11 58.08747 12.23223 37851 ft 449 kts 239°
2026-04-25 17:12 58.04883 12.14028 37857 ft 449 kts 239°
2026-04-25 17:12 58.00988 12.04783 37865 ft 451 kts 239°
2026-04-25 17:13 57.98370 11.98603 37871 ft 451 kts 239°
2026-04-25 17:13 57.93137 11.86299 37875 ft 453 kts 239°
2026-04-25 17:14 57.89190 11.77068 37874 ft 453 kts 239°
2026-04-25 17:14 57.85236 11.67844 37885 ft 453 kts 239°
2026-04-25 17:15 57.81279 11.58644 37874 ft 454 kts 239°
2026-04-25 17:15 57.77334 11.49512 37875 ft 453 kts 239°
2026-04-25 17:16 57.73355 11.40356 37878 ft 453 kts 239°
2026-04-25 17:16 57.69376 11.31204 37836 ft 453 kts 239°
2026-04-25 17:17 57.65346 11.22165 37868 ft 456 kts 234°
2026-04-25 17:17 57.60424 11.14450 37897 ft 465 kts 226°
2026-04-25 17:18 57.55299 11.07135 37906 ft 464 kts 225°
2026-04-25 17:18 57.50218 10.99854 37903 ft 464 kts 226°
2026-04-25 17:19 57.45146 10.92517 37857 ft 463 kts 226°
2026-04-25 17:19 57.40058 10.85147 37890 ft 462 kts 226°
2026-04-25 17:20 57.34997 10.77831 37869 ft 461 kts 226°
2026-04-25 17:20 57.29928 10.70536 37902 ft 461 kts 226°
2026-04-25 17:21 57.24863 10.63263 37916 ft 462 kts 226°
2026-04-25 17:21 57.19766 10.55978 37880 ft 464 kts 226°
2026-04-25 17:22 57.16393 10.51179 37911 ft 464 kts 226°
2026-04-25 17:22 57.09563 10.41492 37930 ft 466 kts 226°
2026-04-25 17:23 57.04413 10.34208 37933 ft 467 kts 226°
2026-04-25 17:23 56.99253 10.26944 37937 ft 468 kts 226°
2026-04-25 17:24 56.94074 10.19683 37910 ft 468 kts 226°
2026-04-25 17:24 56.89782 10.13686 37920 ft 467 kts 226°
2026-04-25 17:25 56.84631 10.06510 37945 ft 466 kts 226°
2026-04-25 17:25 56.78645 9.98198 37939 ft 464 kts 226°
2026-04-25 17:26 56.74363 9.92273 37902 ft 462 kts 226°
2026-04-25 17:26 56.69243 9.85210 37927 ft 460 kts 226°
2026-04-25 17:27 56.64138 9.78194 37953 ft 461 kts 226°
2026-04-25 17:27 56.59887 9.72367 37966 ft 460 kts 226°
2026-04-25 17:28 56.53905 9.64196 37959 ft 461 kts 226°
2026-04-25 17:28 56.48806 9.57256 37960 ft 462 kts 226°
2026-04-25 17:29 56.43683 9.50315 37943 ft 461 kts 226°
2026-04-25 17:29 56.38524 9.43349 37962 ft 462 kts 226°
2026-04-25 17:30 56.33379 9.36423 37994 ft 462 kts 226°
2026-04-25 17:30 56.28217 9.29496 38002 ft 463 kts 226°
2026-04-25 17:31 56.23041 9.22585 37941 ft 464 kts 226°
2026-04-25 17:31 56.17888 9.15719 37933 ft 464 kts 226°
2026-04-25 17:32 56.12713 9.08844 38004 ft 463 kts 225°
2026-04-25 17:32 56.07527 9.01977 38015 ft 464 kts 225°
2026-04-25 17:33 56.02322 8.95115 38008 ft 465 kts 225°
2026-04-25 17:33 55.97100 8.88254 37971 ft 466 kts 225°
2026-04-25 17:34 55.91875 8.81412 38006 ft 467 kts 225°
2026-04-25 17:34 55.86667 8.74608 38026 ft 467 kts 225°
2026-04-25 17:35 55.81423 8.67791 38017 ft 467 kts 225°
2026-04-25 17:35 55.76168 8.61006 38024 ft 467 kts 225°
2026-04-25 17:36 55.70923 8.54207 38051 ft 466 kts 225°
2026-04-25 17:36 55.65353 8.48072 38064 ft 477 kts 216°
2026-04-25 17:37 55.59420 8.42745 38051 ft 479 kts 214°
2026-04-25 17:37 55.53509 8.37525 37997 ft 477 kts 214°
2026-04-25 17:38 55.48566 8.33068 38022 ft 475 kts 214°
2026-04-25 17:38 55.41751 8.26858 38049 ft 474 kts 214°
2026-04-25 17:39 55.35901 8.21523 38062 ft 473 kts 214°
2026-04-25 17:39 55.30051 8.16210 38088 ft 473 kts 214°
2026-04-25 17:40 55.24233 8.10948 38059 ft 473 kts 214°
2026-04-25 17:40 55.18393 8.05684 38083 ft 473 kts 214°
2026-04-25 17:41 55.12536 8.00432 38092 ft 473 kts 214°
2026-04-25 17:41 55.06681 7.95193 38083 ft 472 kts 214°
2026-04-25 17:42 55.00828 7.89970 38061 ft 472 kts 214°
2026-04-25 17:42 54.94987 7.84779 38096 ft 471 kts 213°
2026-04-25 17:43 54.89191 7.79650 38107 ft 470 kts 213°
2026-04-25 17:43 54.83364 7.74502 38123 ft 469 kts 213°
2026-04-25 17:44 54.77549 7.69381 38122 ft 469 kts 213°
2026-04-25 17:44 54.71749 7.64292 38120 ft 466 kts 213°
2026-04-25 17:45 54.66943 7.60083 38129 ft 465 kts 213°
2026-04-25 17:45 54.60212 7.54215 38111 ft 463 kts 212°
2026-04-25 17:46 54.54509 7.49260 38135 ft 462 kts 212°
2026-04-25 17:46 54.48796 7.44306 38150 ft 459 kts 212°
2026-04-25 17:47 54.43119 7.39406 38149 ft 458 kts 212°
2026-04-25 17:47 54.37453 7.34525 38144 ft 456 kts 212°
2026-04-25 17:48 54.28935 7.27230 38161 ft 454 kts 212°
2026-04-25 17:49 54.23309 7.22422 38150 ft 452 kts 212°
2026-04-25 17:49 54.17713 7.17656 38161 ft 449 kts 212°
2026-04-25 17:50 54.12105 7.12893 38167 ft 447 kts 212°
2026-04-25 17:50 54.06582 7.08217 38162 ft 445 kts 212°
2026-04-25 17:51 54.01030 7.03527 38172 ft 444 kts 211°
2026-04-25 17:51 53.95517 6.98890 38167 ft 443 kts 211°
2026-04-25 17:52 53.90001 6.94261 38179 ft 442 kts 211°
2026-04-25 17:52 53.84444 6.89612 38188 ft 442 kts 211°
2026-04-25 17:53 53.78919 6.85010 38170 ft 444 kts 211°
2026-04-25 17:53 53.73417 6.80429 38179 ft 444 kts 211°
2026-04-25 17:54 53.67884 6.75840 38176 ft 444 kts 211°
2026-04-25 17:54 53.62324 6.71243 38187 ft 444 kts 211°
2026-04-25 17:55 53.56768 6.66659 38182 ft 446 kts 211°
2026-04-25 17:55 53.51524 6.61398 38197 ft 437 kts 223°
2026-04-25 17:56 53.46774 6.54997 38194 ft 436 kts 224°
2026-04-25 17:56 53.42087 6.48650 38188 ft 435 kts 223°
2026-04-25 17:57 53.37365 6.42346 38192 ft 435 kts 223°
2026-04-25 17:57 53.32607 6.36054 38192 ft 433 kts 223°
2026-04-25 17:58 53.27892 6.29851 38194 ft 432 kts 223°
2026-04-25 17:58 53.23160 6.23638 38193 ft 431 kts 223°
2026-04-25 17:59 53.18479 6.17512 38193 ft 431 kts 223°
2026-04-25 17:59 53.13767 6.11359 38180 ft 430 kts 223°
2026-04-25 18:00 53.09065 6.05239 38179 ft 429 kts 223°
2026-04-25 18:00 53.04352 5.99122 38182 ft 429 kts 223°
2026-04-25 18:01 52.99686 5.93084 38206 ft 428 kts 223°
2026-04-25 18:01 52.94959 5.86983 38203 ft 427 kts 223°
2026-04-25 18:02 52.90300 5.80986 38201 ft 427 kts 222°
2026-04-25 18:02 52.85575 5.74923 38182 ft 427 kts 222°
2026-04-25 18:03 52.80907 5.68950 38187 ft 427 kts 222°
2026-04-25 18:03 52.76220 5.62970 38207 ft 426 kts 222°
2026-04-25 18:04 52.71516 5.56982 38208 ft 426 kts 222°
2026-04-25 18:04 52.66819 5.51021 38196 ft 426 kts 221°
2026-04-25 18:05 52.62170 5.45139 38197 ft 425 kts 221°
2026-04-25 18:05 52.57472 5.39209 38209 ft 425 kts 221°
2026-04-25 18:06 52.52785 5.33310 38212 ft 424 kts 221°
2026-04-25 18:06 52.48099 5.27428 38211 ft 424 kts 221°
2026-04-25 18:07 52.43402 5.21547 38210 ft 424 kts 221°
2026-04-25 18:07 52.38709 5.15687 38213 ft 424 kts 220°
2026-04-25 18:08 52.34051 5.09914 38201 ft 424 kts 218°
2026-04-25 18:08 52.28831 5.05299 38217 ft 428 kts 209°
2026-04-25 18:09 52.23458 5.01137 38221 ft 428 kts 209°
2026-04-25 18:09 52.18072 4.96922 38206 ft 428 kts 209°
2026-04-25 18:10 52.12767 4.92730 38204 ft 427 kts 209°
2026-04-25 18:10 52.07424 4.88512 38210 ft 426 kts 209°
2026-04-25 18:11 52.02097 4.84314 38212 ft 426 kts 208°
2026-04-25 18:11 51.96744 4.80107 38209 ft 426 kts 208°
2026-04-25 18:12 51.91442 4.75951 38205 ft 425 kts 209°
2026-04-25 18:12 51.86113 4.71757 38206 ft 424 kts 209°
2026-04-25 18:13 51.80809 4.67605 38206 ft 424 kts 208°
2026-04-25 18:13 51.75483 4.63495 38208 ft 424 kts 208°
2026-04-25 18:14 51.67482 4.57327 38202 ft 423 kts 208°
2026-04-25 18:14 51.62176 4.53228 38206 ft 423 kts 208°
2026-04-25 18:15 51.56878 4.49124 38209 ft 422 kts 208°
2026-04-25 18:15 51.51621 4.45072 38211 ft 422 kts 208°
2026-04-25 18:16 51.46329 4.40998 38207 ft 422 kts 208°
2026-04-25 18:17 51.38384 4.34926 38214 ft 422 kts 208°
2026-04-25 18:17 51.33059 4.30959 38212 ft 422 kts 208°
2026-04-25 18:17 51.30394 4.28971 38103 ft 425 kts 208°
2026-04-25 18:18 51.27713 4.26937 37785 ft 426 kts 208°
2026-04-25 18:18 51.25051 4.24906 37515 ft 423 kts 208°
2026-04-25 18:18 51.22408 4.22886 37249 ft 420 kts 208°
2026-04-25 18:18 51.19771 4.20881 36977 ft 417 kts 208°
2026-04-25 18:19 51.17159 4.18905 36706 ft 415 kts 208°
2026-04-25 18:19 51.14531 4.17157 36447 ft 415 kts 203°
2026-04-25 18:19 51.11806 4.15646 36195 ft 413 kts 201°
2026-04-25 18:19 51.09085 4.14221 35940 ft 411 kts 201°
2026-04-25 18:20 51.06368 4.12797 35685 ft 410 kts 201°
2026-04-25 18:20 51.03673 4.11362 35438 ft 408 kts 201°
2026-04-25 18:20 51.00987 4.09915 35184 ft 407 kts 201°
2026-04-25 18:20 50.98310 4.08464 34944 ft 406 kts 202°
2026-04-25 18:21 50.95653 4.07017 34658 ft 401 kts 202°
2026-04-25 18:21 50.93026 4.05587 34315 ft 397 kts 202°
2026-04-25 18:21 50.90420 4.04170 33901 ft 395 kts 202°
2026-04-25 18:21 50.87834 4.02762 33485 ft 391 kts 202°
2026-04-25 18:22 50.85307 4.01251 33110 ft 386 kts 205°
2026-04-25 18:22 50.84497 4.00737 32983 ft 384 kts 205°
2026-04-25 18:22 50.80423 3.98073 32346 ft 378 kts 206°
2026-04-25 18:22 50.78005 3.96490 31997 ft 374 kts 206°
2026-04-25 18:23 50.75575 3.94909 31209 ft 381 kts 206°
2026-04-25 18:23 50.73099 3.93309 30503 ft 388 kts 206°
2026-04-25 18:23 50.70580 3.91693 29709 ft 394 kts 206°
2026-04-25 18:23 50.68028 3.90061 28881 ft 398 kts 206°
2026-04-25 18:24 50.65453 3.88419 28091 ft 401 kts 206°
2026-04-25 18:24 50.62855 3.86766 27300 ft 404 kts 205°
2026-04-25 18:24 50.60256 3.85055 26534 ft 405 kts 210°
2026-04-25 18:24 50.57856 3.82759 25772 ft 403 kts 219°
2026-04-25 18:25 50.55750 3.79955 25064 ft 401 kts 227°
2026-04-25 18:25 50.53947 3.76649 24451 ft 398 kts 234°
2026-04-25 18:25 50.52262 3.73218 23874 ft 395 kts 234°
2026-04-25 18:25 50.50583 3.69817 23388 ft 390 kts 234°
2026-04-25 18:26 50.48931 3.66527 23238 ft 376 kts 233°
2026-04-25 18:26 50.47337 3.63383 23187 ft 360 kts 233°
2026-04-25 18:26 50.45806 3.60368 23175 ft 345 kts 233°
2026-04-25 18:26 50.44346 3.57489 23172 ft 331 kts 234°
2026-04-25 18:27 50.42930 3.54689 23180 ft 326 kts 234°
2026-04-25 18:27 50.41522 3.51902 23206 ft 327 kts 234°
2026-04-25 18:27 50.40098 3.49087 23202 ft 331 kts 234°
2026-04-25 18:27 50.38658 3.46248 23198 ft 334 kts 234°
2026-04-25 18:28 50.37226 3.43429 23202 ft 335 kts 233°
2026-04-25 18:28 50.35753 3.40532 23181 ft 336 kts 233°
2026-04-25 18:28 50.34318 3.37716 23196 ft 336 kts 233°
2026-04-25 18:29 50.31469 3.32128 23169 ft 317 kts 233°
2026-04-25 18:29 50.30120 3.29490 23175 ft 303 kts 233°
2026-04-25 18:30 50.26418 3.22260 23176 ft 266 kts 234°
2026-04-25 18:30 50.25286 3.20050 23174 ft 257 kts 234°
2026-04-25 18:30 50.24141 3.17817 23217 ft 273 kts 234°
2026-04-25 18:30 50.22865 3.15475 23212 ft 292 kts 226°
2026-04-25 18:31 50.21261 3.13550 23197 ft 288 kts 216°
2026-04-25 18:31 50.19602 3.11886 23138 ft 279 kts 215°
2026-04-25 18:31 50.17961 3.10281 22692 ft 283 kts 215°
2026-04-25 18:31 50.16260 3.08614 21666 ft 305 kts 215°
2026-04-25 18:32 50.14397 3.06782 20838 ft 322 kts 215°
2026-04-25 18:32 50.12497 3.04915 20434 ft 322 kts 215°
2026-04-25 18:32 50.10611 3.03061 20161 ft 319 kts 215°
2026-04-25 18:32 50.08747 3.01225 19848 ft 317 kts 215°
2026-04-25 18:33 50.06886 2.99389 19487 ft 316 kts 215°
2026-04-25 18:33 50.05033 2.97561 19127 ft 316 kts 215°
2026-04-25 18:33 50.03182 2.95734 18810 ft 315 kts 215°
2026-04-25 18:33 50.01333 2.93912 18479 ft 313 kts 215°
2026-04-25 18:34 49.99498 2.92102 18109 ft 313 kts 215°
2026-04-25 18:34 49.97678 2.90308 17632 ft 315 kts 215°
2026-04-25 18:34 49.95822 2.88480 17211 ft 316 kts 215°
2026-04-25 18:34 49.93973 2.86660 16880 ft 314 kts 215°
2026-04-25 18:35 49.92135 2.84854 16550 ft 311 kts 215°
2026-04-25 18:35 49.90312 2.83063 16162 ft 311 kts 215°
2026-04-25 18:35 49.88473 2.81257 15693 ft 314 kts 215°
2026-04-25 18:35 49.86628 2.79448 15343 ft 313 kts 215°
2026-04-25 18:36 49.84797 2.77656 15025 ft 311 kts 215°
2026-04-25 18:36 49.82971 2.75872 14690 ft 309 kts 215°
2026-04-25 18:36 49.81180 2.74121 14375 ft 307 kts 215°
2026-04-25 18:36 49.79353 2.72337 14022 ft 306 kts 215°
2026-04-25 18:37 49.77553 2.70580 13660 ft 305 kts 215°
2026-04-25 18:37 49.75790 2.68859 13330 ft 303 kts 215°
2026-04-25 18:37 49.74015 2.67128 12977 ft 302 kts 214°
2026-04-25 18:37 49.72238 2.65403 12625 ft 301 kts 214°
2026-04-25 18:38 49.70473 2.63686 12285 ft 299 kts 214°
2026-04-25 18:38 49.68717 2.61978 11958 ft 297 kts 214°
2026-04-25 18:38 49.66971 2.60282 11605 ft 297 kts 214°
2026-04-25 18:38 49.65226 2.58589 11259 ft 296 kts 214°
2026-04-25 18:39 49.63488 2.56903 10918 ft 295 kts 214°
2026-04-25 18:39 49.61773 2.55241 10828 ft 285 kts 214°
2026-04-25 18:39 49.60122 2.53642 10749 ft 275 kts 214°
2026-04-25 18:39 49.58516 2.52090 10570 ft 270 kts 214°
2026-04-25 18:40 49.56945 2.50576 10298 ft 270 kts 214°
2026-04-25 18:40 49.55408 2.48927 10211 ft 272 kts 227°
2026-04-25 18:40 49.54374 2.46521 10202 ft 269 kts 244°
2026-04-25 18:40 49.53511 2.43989 10161 ft 266 kts 244°
2026-04-25 18:41 49.52661 2.41486 9924 ft 263 kts 244°
2026-04-25 18:41 49.51809 2.38982 9584 ft 264 kts 244°
2026-04-25 18:41 49.50935 2.36497 9282 ft 264 kts 242°
2026-04-25 18:41 49.50033 2.34051 8987 ft 263 kts 242°
2026-04-25 18:42 49.49122 2.31609 8677 ft 263 kts 242°
2026-04-25 18:42 49.48815 2.30784 8581 ft 263 kts 242°
2026-04-25 18:42 49.47302 2.26746 8128 ft 261 kts 241°
2026-04-25 18:42 49.46389 2.24326 7844 ft 261 kts 242°
2026-04-25 18:43 49.45481 2.21919 7574 ft 260 kts 241°
2026-04-25 18:43 49.44586 2.19510 7303 ft 260 kts 242°
2026-04-25 18:43 49.43709 2.17134 7101 ft 257 kts 242°
2026-04-25 18:43 49.42899 2.14699 6821 ft 256 kts 254°
2026-04-25 18:44 49.42768 2.12009 6533 ft 253 kts 278°
2026-04-25 18:44 49.43041 2.09351 6293 ft 251 kts 281°
2026-04-25 18:44 49.43345 2.06708 6021 ft 251 kts 282°
2026-04-25 18:44 49.43652 2.04074 5790 ft 250 kts 282°
2026-04-25 18:45 49.43847 2.02344 5650 ft 247 kts 282°
2026-04-25 18:45 49.44138 1.99737 5385 ft 247 kts 282°
2026-04-25 18:45 49.44427 1.97144 5102 ft 245 kts 281°
2026-04-25 18:45 49.44721 1.94560 4831 ft 245 kts 281°
2026-04-25 18:46 49.45021 1.91995 4525 ft 244 kts 282°
2026-04-25 18:46 49.45319 1.89426 4282 ft 243 kts 282°
2026-04-25 18:46 49.45608 1.86873 4044 ft 241 kts 281°
2026-04-25 18:46 49.45992 1.84375 3749 ft 242 kts 296°
2026-04-25 18:47 49.46957 1.82295 3503 ft 238 kts 313°
2026-04-25 18:47 49.48029 1.80369 3247 ft 237 kts 312°
2026-04-25 18:47 49.49091 1.78429 2947 ft 238 kts 312°
2026-04-25 18:47 49.50159 1.76472 2636 ft 239 kts 312°
2026-04-25 18:48 49.51214 1.74528 2530 ft 233 kts 312°
2026-04-25 18:48 49.52340 1.72795 2496 ft 226 kts 331°
2026-04-25 18:48 49.53782 1.72168 2505 ft 219 kts
2026-04-25 18:48 49.55182 1.72887 2503 ft 210 kts 38°
2026-04-25 18:49 49.55991 1.74620 2501 ft 197 kts 73°
2026-04-25 18:49 49.56072 1.76686 2511 ft 188 kts 90°
2026-04-25 18:49 49.56002 1.78611 2495 ft 173 kts 91°
2026-04-25 18:49 49.55918 1.80414 2496 ft 168 kts 91°
2026-04-25 18:50 49.55826 1.82225 2499 ft 171 kts 92°
2026-04-25 18:50 49.55732 1.84048 2495 ft 169 kts 91°
2026-04-25 18:50 49.55634 1.85844 2510 ft 168 kts 92°
2026-04-25 18:50 49.55505 1.87626 2494 ft 169 kts 102°
2026-04-25 18:51 49.54957 1.89229 2508 ft 168 kts 119°
2026-04-25 18:51 49.54546 1.90234 2496 ft 167 kts 118°
2026-04-25 18:51 49.53686 1.92294 2514 ft 176 kts 120°
2026-04-25 18:51 49.53003 1.93876 2514 ft 178 kts 120°
2026-04-25 18:52 49.52345 1.95388 2497 ft 165 kts 120°
2026-04-25 18:52 49.51728 1.96803 2425 ft 157 kts 120°
2026-04-25 18:52 49.51123 1.98189 2242 ft 154 kts 119°
2026-04-25 18:52 49.50551 1.99507 2057 ft 146 kts 120°
2026-04-25 18:53 49.49966 2.00790 1838 ft 147 kts 121°
2026-04-25 18:53 49.49397 2.02086 1677 ft 149 kts 120°
2026-04-25 18:53 49.48815 2.03456 1492 ft 156 kts 118°
2026-04-25 18:53 49.48221 2.04851 1281 ft 153 kts 120°
2026-04-25 18:54 49.47051 2.07561 828 ft 149 kts 122°
2026-04-25 18:54 49.46482 2.08886 631 ft 148 kts 122°
2026-04-25 18:54 49.45917 2.10170 447 ft 145 kts 121°
2026-04-25 18:55 49.45373 2.11439 334 ft 133 kts 121°
2026-04-25 18:55 49.44967 2.12380 323 ft 75 kts 123°
2026-04-25 18:55 49.44776 2.12821 316 ft 38 kts 123°
2026-04-25 18:55 49.44682 2.13045 311 ft 16 kts 112°
2026-04-25 18:56 49.44653 2.13199 309 ft 15 kts 88°
2026-04-25 18:56 49.44722 2.13295 306 ft 12 kts
2026-04-25 18:56 49.44789 2.13240 308 ft 11 kts 308°
2026-04-25 18:56 49.44833 2.13143 310 ft 11 kts 303°
2026-04-25 18:57 49.44878 2.13033 313 ft 13 kts 306°
2026-04-25 18:57 49.44934 2.12913 317 ft 14 kts 305°
2026-04-25 18:57 49.44992 2.12780 321 ft 15 kts 302°
2026-04-25 18:57 49.45017 2.12695 323 ft 8 kts 283°
2026-04-25 18:58 49.45019 2.12674 323 ft 0 kts 277°
2026-04-25 18:59 49.45023 2.12595 323 ft 12 kts 275°
2026-04-25 18:59 49.45034 2.12288 329 ft 14 kts 274°
2026-04-25 19:00 49.45117 2.12032 331 ft 13 kts 302°
2026-04-25 19:00 49.45165 2.11917 333 ft 13 kts 304°
2026-04-25 19:01 49.45278 2.11658 333 ft 18 kts 303°
2026-04-25 19:01 49.45352 2.11487 333 ft 19 kts 303°
2026-04-25 19:01 49.45418 2.11340 340 ft 12 kts 313°
2026-04-25 19:01 49.45494 2.11352 341 ft 13 kts 39°
2026-04-25 19:02 49.45621 2.11525 348 ft 12 kts 41°
2026-04-25 19:02 49.45687 2.11610 353 ft 12 kts 31°
2026-04-25 19:02 49.45757 2.11566 346 ft 12 kts 312°
2026-04-25 19:03 49.45766 2.11396 349 ft 11 kts 221°
2026-04-25 19:03 49.45700 2.11278 349 ft 11 kts 262°
2026-04-25 19:03 49.45729 2.11177 353 ft 10 kts 302°
2026-04-25 19:04 49.45786 2.11154 346 ft 3 kts 32°
2026-04-25 19:04 49.45802 2.11170 350 ft 1 kts 33°